Index of /20260430/WXO-DD/model_gdps/15km/00/237
Name Last modified Size Description
Parent Directory -
20260430T00Z_MSC_GDPS_AirTemp_AGL-120m_LatLon0.15_PT237H.grib2 2026-04-30 04:41 915K
20260430T00Z_MSC_GDPS_AirTemp_AGL-2m_LatLon0.15_PT237H.grib2 2026-04-30 04:41 1.0M
20260430T00Z_MSC_GDPS_AirTemp_AGL-40m_LatLon0.15_PT237H.grib2 2026-04-30 04:41 822K
20260430T00Z_MSC_GDPS_AirTemp_AGL-80m_LatLon0.15_PT237H.grib2 2026-04-30 04:41 927K
20260430T00Z_MSC_GDPS_AirTemp_IsbL-0001_LatLon0.15_PT237H.grib2 2026-04-30 04:41 666K
20260430T00Z_MSC_GDPS_AirTemp_IsbL-0005_LatLon0.15_PT237H.grib2 2026-04-30 04:41 693K
20260430T00Z_MSC_GDPS_AirTemp_IsbL-0500_LatLon0.15_PT237H.grib2 2026-04-30 04:41 1.0M
20260430T00Z_MSC_GDPS_AirTemp_IsbL-0700_LatLon0.15_PT237H.grib2 2026-04-30 04:41 956K
20260430T00Z_MSC_GDPS_AirTemp_IsbL-0850_LatLon0.15_PT237H.grib2 2026-04-30 04:41 1.1M
20260430T00Z_MSC_GDPS_AirTemp_IsbL-0925_LatLon0.15_PT237H.grib2 2026-04-30 04:41 1.1M
20260430T00Z_MSC_GDPS_AirTemp_IsbL-1000_LatLon0.15_PT237H.grib2 2026-04-30 04:41 1.1M
20260430T00Z_MSC_GDPS_Albedo_Sfc_LatLon0.15_PT237H.grib2 2026-04-30 04:41 242K
20260430T00Z_MSC_GDPS_ConvectivePrecip-Accum_Sfc_LatLon0.15_PT237H.grib2 2026-04-30 04:41 3.8M
20260430T00Z_MSC_GDPS_DewPointDepression_AGL-2m_LatLon0.15_PT237H.grib2 2026-04-30 04:41 762K
20260430T00Z_MSC_GDPS_DewPointDepression_IsbL-0500_LatLon0.15_PT237H.grib2 2026-04-30 04:41 1.0M
20260430T00Z_MSC_GDPS_DewPointDepression_IsbL-0700_LatLon0.15_PT237H.grib2 2026-04-30 04:41 1.1M
20260430T00Z_MSC_GDPS_DewPointDepression_IsbL-0850_LatLon0.15_PT237H.grib2 2026-04-30 04:41 1.2M
20260430T00Z_MSC_GDPS_DewPointDepression_IsbL-0925_LatLon0.15_PT237H.grib2 2026-04-30 04:41 1.0M
20260430T00Z_MSC_GDPS_DewPointDepression_IsbL-1000_LatLon0.15_PT237H.grib2 2026-04-30 04:41 963K
20260430T00Z_MSC_GDPS_DewPoint_AGL-2m_LatLon0.15_PT237H.grib2 2026-04-30 04:41 607K
20260430T00Z_MSC_GDPS_DownwardLongwaveRadiationFlux-Accum_Sfc_LatLon0.15_PT237H.grib2 2026-04-30 04:41 743K
20260430T00Z_MSC_GDPS_DownwardShortwaveRadiationFlux-Accum_Sfc_LatLon0.15_PT237H.grib2 2026-04-30 04:41 915K
20260430T00Z_MSC_GDPS_FreezingRain-Accum_Sfc_LatLon0.15_PT237H.grib2 2026-04-30 04:41 417K
20260430T00Z_MSC_GDPS_GeopotentialHeight_IsbL-0001_LatLon0.15_PT237H.grib2 2026-04-30 04:41 426K
20260430T00Z_MSC_GDPS_GeopotentialHeight_IsbL-0005_LatLon0.15_PT237H.grib2 2026-04-30 04:41 481K
20260430T00Z_MSC_GDPS_GeopotentialHeight_IsbL-0500_LatLon0.15_PT237H.grib2 2026-04-30 04:41 532K
20260430T00Z_MSC_GDPS_GeopotentialHeight_IsbL-0700_LatLon0.15_PT237H.grib2 2026-04-30 04:41 694K
20260430T00Z_MSC_GDPS_GeopotentialHeight_IsbL-0850_LatLon0.15_PT237H.grib2 2026-04-30 04:41 720K
20260430T00Z_MSC_GDPS_GeopotentialHeight_IsbL-0925_LatLon0.15_PT237H.grib2 2026-04-30 04:41 734K
20260430T00Z_MSC_GDPS_GeopotentialHeight_IsbL-1000_LatLon0.15_PT237H.grib2 2026-04-30 04:41 792K
20260430T00Z_MSC_GDPS_IcePellets-Accum_Sfc_LatLon0.15_PT237H.grib2 2026-04-30 04:41 155K
20260430T00Z_MSC_GDPS_LatentHeatNetFlux_Sfc_LatLon0.15_PT237H.grib2 2026-04-30 04:41 677K
20260430T00Z_MSC_GDPS_NetLongwaveRadiationFlux-Accum_Sfc_LatLon0.15_PT237H.grib2 2026-04-30 04:41 969K
20260430T00Z_MSC_GDPS_NetShortwaveRadiationFlux-Accum_Sfc_LatLon0.15_PT237H.grib2 2026-04-30 04:41 914K
20260430T00Z_MSC_GDPS_O3MixingRatio_Sfc_LatLon0.15_PT237H.grib2 2026-04-30 04:52 2.2M
20260430T00Z_MSC_GDPS_O3_EAtm_LatLon0.15_PT237H.grib2 2026-04-30 04:52 2.4M
20260430T00Z_MSC_GDPS_PlanetaryBoundaryLayerHeight_Sfc_LatLon0.15_PT237H.grib2 2026-04-30 04:41 2.4M
20260430T00Z_MSC_GDPS_Precip-Accum_Sfc_LatLon0.15_PT237H.grib2 2026-04-30 04:41 5.2M
20260430T00Z_MSC_GDPS_PrecipRate_Sfc_LatLon0.15_PT237H.grib2 2026-04-30 04:41 3.0M
20260430T00Z_MSC_GDPS_Pressure_MSL_LatLon0.15_PT237H.grib2 2026-04-30 04:41 827K
20260430T00Z_MSC_GDPS_Pressure_Sfc_LatLon0.15_PT237H.grib2 2026-04-30 04:41 1.1M
20260430T00Z_MSC_GDPS_RadiativeTemp_Sfc_LatLon0.15_PT237H.grib2 2026-04-30 04:41 666K
20260430T00Z_MSC_GDPS_Rain-Accum_Sfc_LatLon0.15_PT237H.grib2 2026-04-30 04:41 4.1M
20260430T00Z_MSC_GDPS_RelativeHumidity_AGL-2m_LatLon0.15_PT237H.grib2 2026-04-30 04:41 1.0M
20260430T00Z_MSC_GDPS_Runoff-Accum_Sfc_LatLon0.15_PT237H.grib2 2026-04-30 04:41 142K
20260430T00Z_MSC_GDPS_SensibleHeatNetFlux_Sfc_LatLon0.15_PT237H.grib2 2026-04-30 04:41 452K
20260430T00Z_MSC_GDPS_Snow-Accum_Sfc_LatLon0.15_PT237H.grib2 2026-04-30 04:41 2.2M
20260430T00Z_MSC_GDPS_SnowDepth_Sfc_LatLon0.15_PT237H.grib2 2026-04-30 04:41 1.7M
20260430T00Z_MSC_GDPS_SoilTemp_DBS-0to10cm_LatLon0.15_PT237H.grib2 2026-04-30 04:41 515K
20260430T00Z_MSC_GDPS_SoilTemp_Sfc_LatLon0.15_PT237H.grib2 2026-04-30 04:41 571K
20260430T00Z_MSC_GDPS_SoilVolumetricWaterContent_DBS-0to10cm_LatLon0.15_PT237H.grib2 2026-04-30 04:41 595K
20260430T00Z_MSC_GDPS_SoilVolumetricWaterContent_DBS-0to1cm_LatLon0.15_PT237H.grib2 2026-04-30 04:41 650K
20260430T00Z_MSC_GDPS_SpecificHumidity_AGL-120m_LatLon0.15_PT237H.grib2 2026-04-30 04:41 1.1M
20260430T00Z_MSC_GDPS_SpecificHumidity_AGL-2m_LatLon0.15_PT237H.grib2 2026-04-30 04:41 1.2M
20260430T00Z_MSC_GDPS_SpecificHumidity_AGL-40m_LatLon0.15_PT237H.grib2 2026-04-30 04:41 1.1M
20260430T00Z_MSC_GDPS_SpecificHumidity_AGL-80m_LatLon0.15_PT237H.grib2 2026-04-30 04:41 1.1M
20260430T00Z_MSC_GDPS_SpecificHumidity_IsbL-0001_LatLon0.15_PT237H.grib2 2026-04-30 04:41 1.1M
20260430T00Z_MSC_GDPS_SpecificHumidity_IsbL-0005_LatLon0.15_PT237H.grib2 2026-04-30 04:41 1.0M
20260430T00Z_MSC_GDPS_SpecificHumidity_IsbL-0500_LatLon0.15_PT237H.grib2 2026-04-30 04:41 1.5M
20260430T00Z_MSC_GDPS_SpecificHumidity_IsbL-0700_LatLon0.15_PT237H.grib2 2026-04-30 04:41 1.6M
20260430T00Z_MSC_GDPS_SpecificHumidity_IsbL-0850_LatLon0.15_PT237H.grib2 2026-04-30 04:41 2.0M
20260430T00Z_MSC_GDPS_SpecificHumidity_IsbL-0925_LatLon0.15_PT237H.grib2 2026-04-30 04:41 1.6M
20260430T00Z_MSC_GDPS_SpecificHumidity_IsbL-1000_LatLon0.15_PT237H.grib2 2026-04-30 04:41 1.5M
20260430T00Z_MSC_GDPS_SpecificHumidity_Sfc_LatLon0.15_PT237H.grib2 2026-04-30 04:41 645K
20260430T00Z_MSC_GDPS_Thickness_IsbL-0850to0700_LatLon0.15_PT237H.grib2 2026-04-30 04:41 468K
20260430T00Z_MSC_GDPS_Thickness_IsbL-1000to0500_LatLon0.15_PT237H.grib2 2026-04-30 04:41 369K
20260430T00Z_MSC_GDPS_Thickness_IsbL-1000to0850_LatLon0.15_PT237H.grib2 2026-04-30 04:41 488K
20260430T00Z_MSC_GDPS_TotalCloudCover_Sfc_LatLon0.15_PT237H.grib2 2026-04-30 04:41 842K
20260430T00Z_MSC_GDPS_UVIndex-ClearSky_Sfc_LatLon0.15_PT237H.grib2 2026-04-30 04:52 1.0M
20260430T00Z_MSC_GDPS_UVIndex_Sfc_LatLon0.15_PT237H.grib2 2026-04-30 04:52 1.5M
20260430T00Z_MSC_GDPS_UpwardLongwaveRadiationFlux_NTAtm_LatLon0.15_PT237H.grib2 2026-04-30 04:41 836K
20260430T00Z_MSC_GDPS_VerticalVelocity_IsbL-0500_LatLon0.15_PT237H.grib2 2026-04-30 04:41 1.2M
20260430T00Z_MSC_GDPS_VerticalVelocity_IsbL-0700_LatLon0.15_PT237H.grib2 2026-04-30 04:41 1.4M
20260430T00Z_MSC_GDPS_VerticalVelocity_IsbL-0850_LatLon0.15_PT237H.grib2 2026-04-30 04:41 1.6M
20260430T00Z_MSC_GDPS_WindDir_AGL-10m_LatLon0.15_PT237H.grib2 2026-04-30 04:41 1.3M
20260430T00Z_MSC_GDPS_WindDir_AGL-120m_LatLon0.15_PT237H.grib2 2026-04-30 04:41 1.3M
20260430T00Z_MSC_GDPS_WindDir_AGL-40m_LatLon0.15_PT237H.grib2 2026-04-30 04:41 1.4M
20260430T00Z_MSC_GDPS_WindDir_AGL-80m_LatLon0.15_PT237H.grib2 2026-04-30 04:41 1.4M
20260430T00Z_MSC_GDPS_WindDir_IsbL-0001_LatLon0.15_PT237H.grib2 2026-04-30 04:41 661K
20260430T00Z_MSC_GDPS_WindDir_IsbL-0005_LatLon0.15_PT237H.grib2 2026-04-30 04:41 804K
20260430T00Z_MSC_GDPS_WindDir_IsbL-0500_LatLon0.15_PT237H.grib2 2026-04-30 04:41 1.4M
20260430T00Z_MSC_GDPS_WindDir_IsbL-0700_LatLon0.15_PT237H.grib2 2026-04-30 04:41 1.6M
20260430T00Z_MSC_GDPS_WindDir_IsbL-0850_LatLon0.15_PT237H.grib2 2026-04-30 04:41 1.9M
20260430T00Z_MSC_GDPS_WindDir_IsbL-0925_LatLon0.15_PT237H.grib2 2026-04-30 04:41 2.0M
20260430T00Z_MSC_GDPS_WindDir_IsbL-1000_LatLon0.15_PT237H.grib2 2026-04-30 04:41 2.0M
20260430T00Z_MSC_GDPS_WindGust-Max_AGL-10m_LatLon0.15_PT237H.grib2 2026-04-30 04:41 2.2M
20260430T00Z_MSC_GDPS_WindGust-Min_AGL-10m_LatLon0.15_PT237H.grib2 2026-04-30 04:41 2.2M
20260430T00Z_MSC_GDPS_WindGust_AGL-10m_LatLon0.15_PT237H.grib2 2026-04-30 04:41 2.2M
20260430T00Z_MSC_GDPS_WindSpeed_AGL-10m_LatLon0.15_PT237H.grib2 2026-04-30 04:41 1.1M
20260430T00Z_MSC_GDPS_WindSpeed_AGL-120m_LatLon0.15_PT237H.grib2 2026-04-30 04:41 1.2M
20260430T00Z_MSC_GDPS_WindSpeed_AGL-40m_LatLon0.15_PT237H.grib2 2026-04-30 04:41 1.2M
20260430T00Z_MSC_GDPS_WindSpeed_AGL-80m_LatLon0.15_PT237H.grib2 2026-04-30 04:41 1.2M
20260430T00Z_MSC_GDPS_WindSpeed_IsbL-0001_LatLon0.15_PT237H.grib2 2026-04-30 04:41 647K
20260430T00Z_MSC_GDPS_WindSpeed_IsbL-0005_LatLon0.15_PT237H.grib2 2026-04-30 04:41 687K
20260430T00Z_MSC_GDPS_WindSpeed_IsbL-0500_LatLon0.15_PT237H.grib2 2026-04-30 04:41 1.1M
20260430T00Z_MSC_GDPS_WindSpeed_IsbL-0700_LatLon0.15_PT237H.grib2 2026-04-30 04:41 1.5M
20260430T00Z_MSC_GDPS_WindSpeed_IsbL-0850_LatLon0.15_PT237H.grib2 2026-04-30 04:41 1.8M
20260430T00Z_MSC_GDPS_WindSpeed_IsbL-0925_LatLon0.15_PT237H.grib2 2026-04-30 04:41 1.9M
20260430T00Z_MSC_GDPS_WindSpeed_IsbL-1000_LatLon0.15_PT237H.grib2 2026-04-30 04:41 1.8M
20260430T00Z_MSC_GDPS_WindU_AGL-10m_LatLon0.15_PT237H.grib2 2026-04-30 04:41 1.6M
20260430T00Z_MSC_GDPS_WindU_AGL-120m_LatLon0.15_PT237H.grib2 2026-04-30 04:41 1.0M
20260430T00Z_MSC_GDPS_WindU_AGL-40m_LatLon0.15_PT237H.grib2 2026-04-30 04:41 971K
20260430T00Z_MSC_GDPS_WindU_AGL-80m_LatLon0.15_PT237H.grib2 2026-04-30 04:41 1.0M
20260430T00Z_MSC_GDPS_WindU_IsbL-0001_LatLon0.15_PT237H.grib2 2026-04-30 04:41 501K
20260430T00Z_MSC_GDPS_WindU_IsbL-0005_LatLon0.15_PT237H.grib2 2026-04-30 04:41 685K
20260430T00Z_MSC_GDPS_WindU_IsbL-0500_LatLon0.15_PT237H.grib2 2026-04-30 04:41 1.1M
20260430T00Z_MSC_GDPS_WindU_IsbL-0700_LatLon0.15_PT237H.grib2 2026-04-30 04:41 1.2M
20260430T00Z_MSC_GDPS_WindU_IsbL-0850_LatLon0.15_PT237H.grib2 2026-04-30 04:41 1.4M
20260430T00Z_MSC_GDPS_WindU_IsbL-0925_LatLon0.15_PT237H.grib2 2026-04-30 04:41 1.5M
20260430T00Z_MSC_GDPS_WindU_IsbL-1000_LatLon0.15_PT237H.grib2 2026-04-30 04:41 1.7M
20260430T00Z_MSC_GDPS_WindV_AGL-10m_LatLon0.15_PT237H.grib2 2026-04-30 04:41 1.6M
20260430T00Z_MSC_GDPS_WindV_AGL-120m_LatLon0.15_PT237H.grib2 2026-04-30 04:41 1.0M
20260430T00Z_MSC_GDPS_WindV_AGL-40m_LatLon0.15_PT237H.grib2 2026-04-30 04:41 1.0M
20260430T00Z_MSC_GDPS_WindV_AGL-80m_LatLon0.15_PT237H.grib2 2026-04-30 04:41 1.0M
20260430T00Z_MSC_GDPS_WindV_IsbL-0001_LatLon0.15_PT237H.grib2 2026-04-30 04:41 682K
20260430T00Z_MSC_GDPS_WindV_IsbL-0005_LatLon0.15_PT237H.grib2 2026-04-30 04:41 763K
20260430T00Z_MSC_GDPS_WindV_IsbL-0500_LatLon0.15_PT237H.grib2 2026-04-30 04:41 1.1M
20260430T00Z_MSC_GDPS_WindV_IsbL-0700_LatLon0.15_PT237H.grib2 2026-04-30 04:41 1.2M
20260430T00Z_MSC_GDPS_WindV_IsbL-0850_LatLon0.15_PT237H.grib2 2026-04-30 04:41 1.4M
20260430T00Z_MSC_GDPS_WindV_IsbL-0925_LatLon0.15_PT237H.grib2 2026-04-30 04:41 1.5M
20260430T00Z_MSC_GDPS_WindV_IsbL-1000_LatLon0.15_PT237H.grib2 2026-04-30 04:41 1.7M